Temperature
27 28 28 28 29 28 28 29 29 29 29 30 29 29 28 27 27 26 25 25 25 25 23 22 22 22 21 21 20 20 19 19 19 19 19 19 19 18 18 17 17 16 16 16
28 28 28 28 28 28 28 28 29 29 29 29 29 29 29 27 27 26 26 25 25 24 23 22 22 22 22 21 21 20 20 20 20 19 19 19 18 18 18 17 17 16 16 16
28 28 28 28 28 28 28 28 28 28 29 29 28 28 29 28 27 26 25 25 25 25 24 23 23 23 22 21 21 20 20 20 20 20 19 19 18 18 18 17 17 16 16 15
28 29 28 28 28 28 28 29 28 28 27 28 28 27 29 29 28 28 27 26 25 24 24 24 23 23 22 21 21 20 20 20 20 20 19 19 19 19 18 17 17 16 15 15
28 28 28 28 28 28 28 28 27 27 27 27 28 27 28 29 28 28 28 26 25 24 23 23 22 22 21 21 20 20 20 20 20 20 20 20 19 18 18 17 16 16 15 15
28 28 28 28 28 28 27 27 27 27 27 26 26 26 27 27 25 26 26 24 23 22 21 21 20 20 20 19 19 19 20 20 20 20 20 19 19 18 18 17 16 16 15 14
28 28 29 28 28 28 28 27 26 26 26 26 26 26 25 23 23 23 22 21 20 18 17 17 18 18 18 18 18 19 19 19 19 19 19 19 19 18 18 17 16 15 15 15
27 27 28 28 27 27 27 26 25 25 25 26 27 26 24 21 20 19 18 17 16 15 15 14 14 15 15 15 16 16 17 17 18 18 18 18 18 17 17 16 16 15 15 15
27 27 28 28 27 27 27 27 27 26 26 25 26 26 23 21 19 18 17 16 15 14 14 14 14 14 13 13 14 14 14 15 15 16 16 17 17 17 16 16 16 15 15 14
28 26 28 28 28 26 26 26 26 26 24 24 25 26 25 20 18 17 16 15 14 14 14 13 13 13 13 13 12 12 13 13 14 14 15 15 16 16 16 15 15 15 15 14
27 26 27 28 26 26 26 26 25 26 25 24 24 25 18 17 16 16 16 15 14 14 13 13 12 12 12 12 12 11 12 12 12 13 13 14 14 14 15 15 15 14 14 14
27 26 26 27 26 26 26 25 25 24 24 24 24 23 16 15 15 15 14 14 13 13 13 13 12 12 11 11 11 11 11 11 11 11 12 12 12 13 13 14 14 14 14 14
26 25 25 26 26 26 26 25 25 24 24 24 23 21 15 14 13 13 13 12 12 12 12 12 12 11 11 10 10 10 10 10 10 10 10 11 11 11 12 12 13 13 13 14
24 25 25 24 25 26 25 25 25 24 24 24 23 20 15 13 12 11 11 11 11 11 11 10 10 10 10 9 9 9 9 9 9 9 10 10 10 10 11 11 12 12 13 13
24 25 25 25 26 25 24 23 22 22 21 21 20 17 14 13 12 11 10 10 10 10 10 9 9 9 9 9 9 9 9 8 8 8 8 8 8 9 10 10 11 11 12 12
24 24 24 24 25 24 21 19 19 18 18 18 16 14 14 12 11 10 10 10 10 10 11 11 10 10 10 10 9 9 9 8 8 8 8 8 8 8 8 9 10 10 11 12
24 23 23 24 25 23 20 16 17 16 15 16 15 14 13 11 11 11 12 12 12 12 12 12 11 11 11 10 10 10 9 9 8 8 8 8 8 8 8 9 9 9 10 11
22 22 23 24 23 22 15 16 16 15 14 14 13 13 13 13 13 13 13 14 13 12 12 11 11 11 11 10 10 10 10 9 9 9 9 9 9 9 9 9 9 9 9 10
21 22 23 23 23 19 16 16 16 15 15 14 14 15 14 14 13 14 14 12 11 11 11 10 10 10 10 10 9 9 9 9 9 9 9 9 9 9 9 9 9 9 9 9
22 22 22 21 20 20 16 16 16 17 15 14 14 14 13 13 13 13 11 11 10 10 10 9 9 9 9 9 9 9 9 9 9 9 9 9 9 9 8 8 8 8 8 8
21 21 20 20 20 17 16 16 16 16 16 14 13 13 12 12 11 11 10 10 10 9 9 9 9 8 8 8 8 8 8 8 8 8 8 8 8 8 8 8 8 8 8 8
20 20 19 19 19 17 15 16 15 15 14 13 12 11 11 11 10 10 10 9 9 9 9 8 8 8 7 7 7 7 7 7 7 7 7 7 7 7 8 8 8 7 8 8
18 17 18 17 18 16 15 14 14 13 12 12 11 11 10 10 10 9 9 9 9 9 8 8 7 7 6 6 6 6 6 6 6 6 6 6 6 6 7 7 7 7 7 8
17 15 17 16 17 16 14 14 13 12 11 11 10 10 10 9 9 9 9 9 8 8 8 7 7 6 6 5 5 5 5 5 5 5 5 5 5 6 6 6 7 8 8 8
17 16 16 16 16 15 14 13 12 11 10 10 10 10 9 9 9 9 8 8 8 8 7 7 6 5 5 5 5 5 5 5 5 5 5 5 5 5 5 6 6 7 8 8
16 16 15 15 14 13 13 12 11 11 10 10 9 9 9 9 9 9 8 8 8 7 7 6 5 4 4 4 4 4 4 4 4 4 4 4 4 4 5 5 6 7 7 7
Wind_Speed
4 5 1 3 2 3 3 5 6 3 4 6 5 4 1 4 7 9 11 12 12 10 10 9 8 8 7 6 5 5 4 4 3 2 2 2 3 3 3 2 1 2 3 4
5 2 5 2 1 2 3 5 5 4 1 6 8 6 3 5 7 9 12 12 12 11 10 9 9 8 7 7 5 5 5 4 4 3 2 2 3 4 4 3 2 3 3 5
3 5 4 1 1 5 6 7 8 8 7 9 10 12 9 7 8 10 11 11 11 11 11 10 10 9 8 6 5 4 4 4 5 4 4 4 4 5 5 5 5 3 4 5
3 3 5 6 6 8 9 5 6 8 11 13 9 13 12 9 10 12 12 11 10 9 9 8 8 7 7 5 5 5 5 6 6 7 7 7 7 8 7 6 5 4 4 6
4 4 7 7 6 8 7 4 6 9 11 12 9 10 9 3 9 11 10 8 6 5 5 4 3 3 3 4 5 6 7 8 8 8 7 7 8 8 7 5 5 6 6 6
4 3 4 6 5 4 3 6 8 9 9 6 2 7 4 6 9 10 8 5 2 1 2 5 6 6 6 7 7 8 8 9 8 8 8 8 8 8 8 7 7 7 6 6
1 2 1 4 8 4 6 10 8 7 5 2 2 6 4 12 14 13 13 14 13 14 14 14 14 14 13 12 11 10 9 8 7 7 7 7 7 7 8 8 7 7 7 7
3 2 4 5 8 10 9 9 9 8 8 9 5 3 8 15 15 16 17 18 19 19 17 17 16 15 15 15 15 14 12 9 7 5 4 5 6 7 7 7 7 7 7 7
5 6 3 2 5 7 7 7 7 10 12 11 7 2 9 14 15 16 17 18 18 17 17 16 16 16 16 16 16 16 15 13 12 9 6 5 5 7 7 7 8 8 6 7
7 10 7 2 4 0 4 6 6 8 8 10 7 8 2 9 10 12 14 15 15 15 16 16 16 16 16 16 15 15 15 15 14 14 12 8 8 7 8 9 9 9 9 9
6 9 10 7 7 8 4 4 5 7 8 11 15 7 6 8 8 9 11 13 14 15 15 14 14 14 15 15 16 15 15 15 14 14 14 13 11 10 9 9 11 11 11 10
4 8 11 10 1 1 3 4 4 7 9 10 15 5 9 9 8 9 10 12 13 14 14 14 14 14 14 14 15 15 15 14 14 14 14 14 13 13 12 11 12 12 13 13
4 7 11 7 5 4 5 4 6 8 10 12 15 2 8 8 8 10 13 15 16 17 17 16 15 14 14 14 14 13 13 14 14 14 14 14 14 14 13 13 14 14 14 14
5 10 12 13 11 10 9 8 8 10 12 13 13 4 7 9 10 12 14 16 17 17 16 15 15 13 13 12 12 12 12 11 12 13 13 12 12 12 12 13 14 14 15 15
3 8 10 12 12 8 6 9 9 8 9 10 9 6 9 11 12 14 16 18 19 18 16 14 13 12 11 10 10 10 11 10 9 10 11 12 12 12 12 12 13 14 15 16
3 6 9 11 7 3 7 12 8 7 6 5 3 3 8 12 12 14 17 19 20 20 19 19 18 17 16 16 15 14 15 14 13 12 13 13 13 14 13 13 13 14 14 14
4 5 7 9 4 8 2 11 9 4 3 4 3 7 14 15 15 16 19 22 21 21 22 23 23 22 21 21 20 19 18 17 16 16 16 15 14 14 14 14 14 13 13 13
5 5 5 9 11 7 7 6 7 4 3 1 4 11 15 18 21 22 24 21 20 24 26 26 25 25 24 24 23 22 21 20 19 18 17 17 17 16 15 14 14 12 12 12
6 6 6 7 10 4 5 7 11 11 13 8 11 20 23 25 26 23 19 23 26 28 27 26 26 27 26 25 25 24 23 22 21 21 20 19 18 17 16 16 15 13 12 11
5 6 6 6 8 4 5 9 13 13 11 2 19 25 26 27 24 22 25 27 27 27 26 26 27 27 26 25 24 24 24 23 22 22 21 20 18 18 17 17 16 15 13 13
8 5 7 8 7 3 6 12 15 12 13 21 24 25 25 25 23 27 30 29 28 28 28 27 27 25 24 24 24 25 25 24 23 21 21 21 19 17 18 17 16 15 15 14
7 6 7 7 6 2 8 12 11 15 21 23 24 24 25 26 28 28 29 29 29 28 28 28 26 25 23 23 23 24 24 23 22 21 21 20 19 18 17 17 16 15 15 15
4 5 5 5 5 4 9 13 15 18 22 23 22 25 26 28 30 30 29 29 28 28 27 26 26 25 23 22 21 24 23 22 22 21 21 20 20 18 17 16 16 15 14 14
2 1 3 6 6 10 16 16 17 20 22 23 23 25 27 29 30 30 29 28 28 28 27 25 26 25 24 23 23 23 23 22 22 21 19 17 17 16 16 15 15 15 14 13
1 1 4 9 11 15 14 18 21 21 22 23 24 26 27 29 30 29 28 28 27 27 26 25 24 24 25 24 24 24 23 22 22 21 18 16 15 15 14 15 14 15 14 10
2 2 5 8 13 16 21 20 22 22 23 24 26 28 27 27 29 30 28 27 27 28 27 26 26 26 26 25 25 23 22 21 20 18 17 14 12 12 13 14 14 15 14 8
Wind_Direction
240 247 15 33 340 341 290 265 265 279 345 311 311 309 219 199 202 198 198 192 189 180 163 162 162 156 154 158 165 176 181 168 189 198 245 263 280 290 289 287 301 304 321 326
218 83 35 356 219 234 274 272 267 254 305 304 298 288 233 211 213 208 202 198 196 186 175 171 169 165 164 160 161 170 177 174 195 189 234 266 294 284 294 279 255 277 308 313
346 42 19 310 255 290 294 295 302 304 302 267 275 269 233 214 216 217 219 216 213 206 194 182 179 175 173 175 182 185 188 194 210 214 231 232 242 255 251 254 251 265 295 302
293 351 327 302 305 311 299 328 303 298 294 292 288 288 273 236 232 230 226 223 225 216 205 185 181 185 193 198 208 213 220 223 222 225 242 262 279 290 300 290 288 287 283 296
312 323 307 300 329 317 323 333 292 294 293 287 273 276 289 271 270 263 246 238 243 225 207 185 198 233 258 273 269 256 245 240 234 234 239 252 268 285 290 284 274 281 288 287
310 297 303 325 325 311 303 271 259 258 268 268 357 302 306 21 356 342 358 3 326 312 54 31 7 351 336 323 305 288 270 258 247 240 243 248 268 277 282 275 281 282 293 294
54 113 66 327 313 281 283 288 284 273 259 302 72 288 38 43 29 27 31 35 39 41 38 31 23 15 5 355 343 328 311 295 282 259 250 249 256 261 258 265 270 282 298 305
310 344 21 353 338 319 306 291 279 294 299 310 284 272 84 62 54 52 53 53 52 50 47 44 37 33 26 21 14 7 357 344 334 310 284 265 255 254 257 248 268 278 291 303
314 318 336 330 322 313 304 288 307 287 281 282 282 196 121 63 61 56 54 52 50 47 43 41 37 34 30 28 25 20 16 13 7 357 339 304 282 270 270 260 252 266 274 286
296 298 313 335 271 115 312 308 282 279 288 289 283 264 262 39 49 51 47 44 39 35 32 27 24 21 17 17 16 16 16 16 13 10 0 348 323 294 276 269 269 272 274 274
285 289 300 306 328 328 293 264 285 281 287 292 292 302 65 65 54 41 36 28 23 18 16 14 12 8 5 4 3 2 1 1 2 2 359 355 347 330 306 283 275 270 268 267
294 289 296 303 94 189 289 322 310 303 299 288 285 296 89 81 57 26 10 5 2 359 356 355 355 353 353 353 352 351 348 347 346 345 343 343 342 339 331 316 298 282 269 262
296 279 288 286 190 204 266 281 289 298 287 282 288 310 90 62 32 9 355 348 343 340 340 339 341 341 341 341 339 337 336 336 334 332 329 330 329 330 330 325 315 298 279 266
276 265 276 292 307 313 298 303 304 288 290 293 308 35 69 23 360 347 339 332 326 323 323 322 323 323 323 321 321 319 318 319 320 320 318 315 313 315 316 317 315 307 292 273
265 267 275 282 290 291 323 351 346 332 328 310 346 44 28 360 339 327 320 315 310 307 304 299 294 291 286 284 282 281 283 284 287 294 295 294 296 298 300 303 304 304 295 279
293 290 292 282 287 283 70 26 17 19 0 354 7 59 360 332 314 301 296 294 293 295 299 300 297 294 292 290 286 281 275 272 267 268 272 275 281 287 291 294 297 298 297 288
311 300 294 300 325 249 94 24 15 35 28 357 338 322 317 307 299 294 295 297 297 300 305 307 307 306 303 301 298 292 286 281 275 272 270 265 263 268 274 282 289 296 302 298
353 326 293 301 300 293 81 51 18 333 239 259 308 309 305 304 307 305 300 307 315 316 314 310 307 305 302 301 300 297 293 287 281 278 277 273 270 270 269 271 276 284 292 296
19 339 317 319 311 114 116 21 352 315 284 247 307 321 322 321 313 307 323 329 318 311 308 306 304 303 302 301 298 295 291 286 280 278 277 276 272 271 270 269 272 277 282 286
19 356 338 336 318 327 52 359 329 304 279 311 324 321 321 320 314 316 323 315 310 309 306 304 303 301 299 298 297 294 290 286 282 280 278 275 272 268 266 266 267 270 275 276
355 0 1 338 326 70 12 338 326 311 319 326 319 317 316 315 310 310 312 311 310 307 305 305 303 302 301 300 297 291 287 284 283 282 279 274 270 266 263 263 262 262 264 269
349 348 356 336 327 359 0 334 327 312 313 313 314 313 313 311 308 310 310 310 309 308 307 307 306 305 304 302 298 292 287 286 285 281 276 271 266 263 262 259 257 256 258 261
17 6 339 330 318 323 324 315 312 316 313 312 312 312 312 310 309 311 311 310 309 308 308 309 307 305 303 300 295 290 288 286 284 280 275 270 264 258 255 257 256 252 247 252
128 301 302 295 287 300 310 310 318 317 312 309 309 309 309 308 309 310 310 309 309 308 309 309 306 303 300 297 293 288 286 284 280 276 273 269 263 256 252 250 250 248 245 243
101 259 295 289 307 311 309 321 321 316 312 309 309 309 309 310 309 310 309 309 308 308 308 308 305 302 299 297 294 291 288 285 280 276 270 264 259 254 255 254 250 249 244 243
188 296 312 314 322 314 313 318 316 314 314 313 313 312 311 310 309 310 309 309 308 307 308 308 305 302 299 298 295 293 290 285 280 275 269 261 251 249 249 250 246 225 229 192
Height
1511 1507 1503 1502 1501 1502 1501 1501 1501 1497 1495 1494 1493 1493 1494 1496 1497 1499 1501 1503 1505 1506 1508 1509 1511 1513 1515 1517 1519 1520 1521 1521 1522 1523 1523 1523 1523 1522 1521 1520 1518 1517 1515 1514
1507 1505 1505 1505 1504 1503 1502 1502 1499 1496 1496 1496 1494 1493 1492 1495 1496 1497 1499 1501 1503 1504 1506 1508 1510 1512 1515 1517 1518 1519 1519 1520 1521 1521 1520 1520 1520 1520 1519 1518 1515 1514 1512 1510
1505 1506 1505 1503 1503 1502 1500 1501 1499 1500 1496 1494 1495 1494 1490 1491 1495 1497 1498 1499 1501 1503 1505 1507 1510 1513 1515 1517 1518 1518 1518 1518 1519 1519 1519 1518 1517 1516 1516 1515 1513 1511 1508 1506
1504 1503 1504 1503 1501 1502 1502 1497 1500 1501 1502 1498 1495 1505 1488 1483 1488 1492 1495 1497 1500 1503 1505 1508 1511 1513 1515 1516 1517 1516 1516 1516 1516 1517 1517 1517 1516 1515 1514 1512 1511 1508 1505 1502
1505 1504 1505 1504 1502 1502 1501 1500 1500 1501 1501 1502 1496 1502 1490 1485 1490 1488 1490 1496 1500 1503 1505 1508 1511 1513 1514 1515 1515 1514 1513 1513 1513 1513 1513 1513 1513 1512 1510 1508 1506 1503 1502 1498
1504 1504 1503 1502 1501 1502 1501 1502 1499 1498 1496 1505 1502 1506 1498 1493 1498 1494 1493 1497 1501 1503 1506 1508 1511 1512 1512 1512 1512 1511 1510 1510 1510 1510 1509 1509 1508 1507 1506 1504 1502 1501 1499 1496
1505 1502 1502 1503 1500 1498 1500 1504 1509 1508 1505 1503 1499 1502 1503 1506 1507 1505 1504 1504 1505 1506 1507 1508 1509 1509 1509 1509 1508 1507 1506 1506 1505 1505 1504 1504 1504 1503 1501 1500 1499 1497 1496 1493
1511 1511 1502 1502 1504 1505 1500 1504 1514 1520 1513 1502 1494 1498 1506 1511 1514 1513 1513 1513 1511 1511 1511 1511 1511 1509 1509 1507 1505 1504 1502 1501 1500 1500 1499 1499 1499 1499 1498 1497 1495 1493 1491 1489
1508 1509 1499 1502 1503 1503 1501 1498 1494 1504 1502 1507 1496 1493 1504 1511 1516 1518 1518 1518 1517 1517 1516 1515 1514 1513 1511 1508 1505 1503 1501 1499 1497 1496 1495 1494 1494 1494 1493 1492 1490 1489 1487 1485
1503 1511 1499 1501 1500 1503 1503 1500 1500 1503 1513 1512 1499 1495 1495 1512 1518 1522 1523 1523 1522 1521 1519 1518 1516 1514 1512 1510 1508 1505 1501 1498 1495 1493 1492 1490 1489 1488 1487 1487 1486 1484 1483 1481
1504 1510 1503 1497 1501 1505 1503 1502 1502 1499 1502 1513 1512 1502 1517 1521 1524 1525 1526 1527 1526 1524 1522 1520 1517 1515 1512 1510 1507 1504 1500 1497 1494 1492 1489 1487 1484 1483 1481 1480 1480 1479 1478 1476
1506 1506 1507 1500 1499 1502 1501 1501 1503 1511 1509 1504 1507 1508 1523 1526 1529 1530 1530 1529 1527 1525 1522 1520 1517 1514 1511 1507 1504 1501 1498 1495 1492 1489 1486 1483 1481 1478 1475 1474 1473 1473 1471 1470
1507 1510 1513 1503 1503 1501 1499 1499 1501 1503 1505 1503 1505 1511 1527 1530 1532 1533 1532 1530 1527 1524 1520 1517 1514 1510 1507 1503 1500 1496 1493 1490 1487 1484 1481 1478 1475 1473 1470 1467 1466 1465 1464 1463
1511 1508 1512 1515 1506 1499 1500 1498 1499 1503 1502 1500 1500 1509 1528 1532 1534 1534 1532 1529 1526 1521 1517 1512 1508 1504 1501 1497 1494 1490 1486 1483 1479 1476 1474 1471 1469 1466 1463 1460 1458 1457 1456 1456
1510 1505 1502 1499 1496 1498 1503 1508 1508 1508 1509 1508 1511 1520 1531 1534 1535 1534 1530 1526 1521 1516 1511 1506 1501 1497 1493 1490 1487 1483 1480 1476 1471 1467 1465 1463 1462 1459 1456 1454 1452 1450 1449 1448
1508 1507 1504 1502 1496 1499 1513 1520 1518 1522 1523 1522 1525 1532 1535 1535 1533 1529 1524 1519 1514 1509 1505 1501 1497 1492 1488 1484 1480 1477 1473 1469 1465 1461 1458 1456 1455 1453 1451 1450 1448 1446 1443 1441
1506 1510 1508 1502 1497 1503 1518 1534 1530 1532 1534 1530 1531 1534 1533 1530 1526 1522 1516 1510 1506 1503 1499 1494 1490 1486 1482 1478 1474 1470 1466 1463 1459 1456 1453 1451 1449 1448 1446 1444 1442 1440 1438 1434
1514 1512 1508 1503 1503 1512 1540 1536 1536 1535 1535 1533 1533 1532 1529 1524 1518 1515 1509 1503 1499 1496 1492 1487 1483 1478 1474 1470 1465 1461 1457 1454 1451 1448 1446 1444 1443 1441 1440 1438 1437 1434 1432 1429
1517 1514 1508 1508 1507 1522 1535 1535 1536 1534 1529 1530 1529 1525 1521 1516 1511 1505 1502 1500 1496 1491 1486 1480 1475 1470 1465 1460 1456 1452 1448 1445 1442 1439 1437 1436 1434 1433 1432 1431 1430 1429 1426 1423
1515 1515 1511 1514 1519 1519 1535 1537 1535 1530 1522 1527 1525 1520 1516 1512 1503 1497 1498 1495 1489 1484 1478 1472 1466 1461 1455 1451 1447 1442 1438 1435 1432 1430 1428 1426 1425 1424 1423 1423 1422 1421 1420 1418
1520 1517 1521 1520 1518 1529 1537 1535 1531 1527 1523 1524 1522 1518 1514 1509 1505 1498 1492 1486 1481 1475 1469 1463 1457 1451 1446 1441 1437 1431 1427 1424 1421 1419 1417 1416 1415 1414 1414 1414 1413 1413 1412 1411
1528 1524 1526 1524 1525 1532 1536 1533 1532 1531 1527 1523 1519 1515 1509 1504 1498 1492 1485 1479 1472 1465 1459 1454 1447 1441 1436 1432 1426 1420 1416 1413 1411 1408 1406 1405 1404 1404 1404 1404 1404 1404 1404 1403
1532 1536 1532 1534 1533 1535 1535 1535 1532 1529 1525 1520 1515 1510 1504 1497 1490 1484 1477 1470 1463 1457 1450 1444 1437 1430 1425 1421 1416 1409 1404 1402 1399 1396 1394 1393 1393 1393 1393 1394 1394 1395 1396 1396
1537 1540 1537 1535 1531 1534 1534 1531 1529 1526 1521 1516 1511 1505 1499 1491 1483 1476 1469 1461 1454 1448 1441 1434 1427 1420 1413 1409 1404 1398 1393 1389 1386 1383 1382 1381 1381 1381 1383 1384 1385 1386 1387 1388
1537 1538 1537 1534 1532 1533 1529 1528 1525 1521 1516 1511 1505 1500 1493 1485 1477 1469 1461 1453 1446 1438 1431 1425 1417 1409 1402 1396 1390 1385 1381 1377 1373 1371 1370 1369 1370 1371 1372 1374 1375 1377 1379 1381
1538 1539 1537 1535 1535 1533 1528 1525 1521 1516 1510 1505 1498 1491 1486 1479 1470 1462 1453 1445 1438 1429 1422 1414 1406 1398 1389 1383 1377 1372 1368 1364 1361 1358 1357 1358 1359 1360 1362 1364 1366 1368 1371 1374